EUTELSAT 25B

Last updated on Jan. 29, 2020, 4:37 a.m. UTC

1 39233U 13044A   20028.86337237  .00000142  00000-0  00000-0 0  9990
2 39233   0.0471  25.8693 0001684 281.0154 156.9585  1.00272084 23263
UTC
Height (km)
Latitude
Longitude
Inclination
Orbital Period
UTC large
Height (km)
Speed (km/s)
/
Latitude / Longitude
Inclination (degrees)
Orbital Period (minutes)
Azimuth
Elevation
Range (km)
Doppler Factor
iOS Compass Heading
iOS Angle

Next 30 passes for location: Hong Kong

Rise time Rise Azimuth (degrees) Set time Set Azimuth (degrees) Duration Max altitude (degrees)

No matching passes for this satellites